Tillbaka till svenska Fidonet
English   Information   Debug  
FILM   0/18
FNEWS_PUBLISH   4926
FN_SYSOP   42201
FN_SYSOP_OLD1   71952
FTP_FIDO   0/2
FTSC_PUBLIC   0/13972
FUNNY   0/4886
GENEALOGY.EUR   0/71
GET_INFO   105
GOLDED   0/408
HAM   1735/16657
HOLYSMOKE   0/6791
HOT_SITES   0/1
HTMLEDIT   0/71
HUB203   466
HUB_100   264
HUB_400   39
HUMOR   0/29
IC   0/2851
INTERNET   0/424
INTERUSER   0/3
IP_CONNECT   719
JAMNNTPD   0/233
JAMTLAND   0/47
KATTY_KORNER   0/41
LAN   0/16
LINUX-USER   0/19
LINUXHELP   0/1155
LINUX   0/22300
LINUX_BBS   0/957
mail   18.68
mail_fore_ok   249
MENSA   0/341
MODERATOR   0/102
MONTE   0/992
MOSCOW_OKLAHOMA   0/1245
MUFFIN   0/783
MUSIC   0/321
N203_STAT   938
N203_SYSCHAT   313
NET203   321
NET204   69
NET_DEV   0/10
NORD.ADMIN   0/101
NORD.CHAT   0/2572
NORD.FIDONET   189
NORD.HARDWARE   0/28
NORD.KULTUR   0/114
NORD.PROG   0/32
NORD.SOFTWARE   0/88
NORD.TEKNIK   0/58
NORD   0/453
OCCULT_CHAT   0/93
OS2BBS   0/787
OS2DOSBBS   0/580
OS2HW   0/42
OS2INET   0/37
OS2LAN   0/134
OS2PROG   0/36
OS2REXX   0/113
OS2USER-L   207
OS2   0/4830
OSDEBATE   9017/18996
PASCAL   0/490
PERL   0/457
PHP   0/45
POINTS   0/405
POLITICS   0/29554
POL_INC   0/14731
PSION   103
R20_ADMIN   1133
R20_AMATORRADIO   0/2
R20_BEST_OF_FIDONET   16
R20_CHAT   0/896
R20_DEPP   0/3
R20_DEV   400
R20_ECHO2   1830
R20_ECHOPRES   0/35
R20_ESTAT   0/719
R20_FIDONETPROG...
...RAM.MYPOINT
  0/2
R20_FIDONETPROGRAM   0/22
R20_FIDONET   0/248
R20_FILEFIND   0/24
R20_FILEFOUND   0/22
R20_HIFI   0/3
R20_INFO2   3722
R20_INTERNET   0/12940
R20_INTRESSE   0/60
R20_INTR_KOM   0/99
R20_KANDIDAT.CHAT   42
R20_KANDIDAT   28
R20_KOM_DEV   112
R20_KONTROLL   0/13360
R20_KORSET   0/18
R20_LOKALTRAFIK   0/24
R20_MODERATOR   0/1852
R20_NC   76
R20_NET200   245
R20_NETWORK.OTH...
...ERNETS
  0/13
R20_OPERATIVSYS...
...TEM.LINUX
  0/44
R20_PROGRAMVAROR   0/1
R20_REC2NEC   534
R20_SFOSM   0/341
R20_SF   0/108
R20_SPRAK.ENGLISH   0/1
R20_SQUISH   107
R20_TEST   2
R20_WORST_OF_FIDONET   20
RAR   0/9
RA_MULTI   106
RA_UTIL   0/162
REGCON.EUR   0/2068
REGCON   0/13
SCIENCE   0/1206
SF   0/239
SHAREWARE_SUPPORT   0/5146
SHAREWRE   0/14
SIMPSONS   0/169
STATS_OLD1   0/2539.065
STATS_OLD2   0/2530
STATS_OLD3   0/2395.095
STATS_OLD4   0/1692.25
SURVIVOR   0/495
SYSOPS_CORNER   0/3
SYSOP   0/84
TAGLINES   0/112
TEAMOS2   0/4530
TECH   0/2617
TEST.444   0/105
TRAPDOOR   0/19
TREK   0/755
TUB   0/290
UFO   0/40
UNIX   0/1316
USA_EURLINK   0/102
USR_MODEMS   0/1
VATICAN   0/2740
VIETNAM_VETS   0/14
VIRUS   0/378
VIRUS_INFO   0/201
VISUAL_BASIC   0/473
WHITEHOUSE   0/5187
WIN2000   0/101
WIN32   0/30
WIN95   0/4291
WIN95_OLD1   0/70272
WINDOWS   0/1517
WWB_SYSOP   0/419
WWB_TECH   0/810
ZCC-PUBLIC   0/1
ZEC   4

 
4DOS   0/134
ABORTION   0/7
ALASKA_CHAT   0/506
ALLFIX_FILE   0/1313
ALLFIX_FILE_OLD1   0/7997
ALT_DOS   0/152
AMATEUR_RADIO   0/1039
AMIGASALE   0/14
AMIGA   0/331
AMIGA_INT   0/1
AMIGA_PROG   0/20
AMIGA_SYSOP   0/26
ANIME   0/15
ARGUS   0/924
ASCII_ART   0/340
ASIAN_LINK   0/651
ASTRONOMY   0/417
AUDIO   0/92
AUTOMOBILE_RACING   0/105
BABYLON5   0/17862
BAG   135
BATPOWER   0/361
BBBS.ENGLISH   0/382
BBSLAW   0/109
BBS_ADS   0/5290
BBS_INTERNET   0/507
BIBLE   0/3563
BINKD   0/1119
BINKLEY   0/215
BLUEWAVE   0/2173
CABLE_MODEMS   0/25
CBM   0/46
CDRECORD   0/66
CDROM   0/20
CLASSIC_COMPUTER   0/378
COMICS   0/15
CONSPRCY   0/899
COOKING   41433
COOKING_OLD1   0/24719
COOKING_OLD2   0/40862
COOKING_OLD3   0/37489
COOKING_OLD4   31955/35496
COOKING_OLD5   9370
C_ECHO   0/189
C_PLUSPLUS   0/31
DIRTY_DOZEN   0/201
DOORGAMES   0/2282
DOS_INTERNET   0/196
duplikat   6102
ECHOLIST   0/18295
EC_SUPPORT   0/318
ELECTRONICS   0/359
ELEKTRONIK.GER   1534
ENET.LINGUISTIC   0/13
ENET.POLITICS   0/4
ENET.SOFT   0/11701
ENET.SYSOP   34296
ENET.TALKS   0/32
ENGLISH_TUTOR   0/2000
EVOLUTION   0/1335
FDECHO   0/217
FDN_ANNOUNCE   0/7068
FIDONEWS   25062
FIDONEWS_OLD1   0/49742
FIDONEWS_OLD2   0/35949
FIDONEWS_OLD3   0/30874
FIDONEWS_OLD4   0/37224
FIDO_SYSOP   12922
FIDO_UTIL   0/180
FILEFIND   0/209
FILEGATE   0/212
Möte HAM, 16657 texter
 lista första sista föregående nästa
Text 2676, 745 rader
Skriven 2008-12-19 00:00:28 av Amsat List (1:323/120.0)
Ärende: [keps]  orb08353.amsa
=============================
[keps]  orb08353.amsa

Return-Path: <keps-bounces@amsat.org>
X-Rcpt: craig.healy@chowda.com
X-UIDL: 1229662634.1220

SB KEPS @ AMSAT  $ORB08353.O
Orbital Elements  08353.OSCAR

HR AMSAT ORBITAL ELEMENTS FOR OSCAR SATELLITES
FROM WA5QGD FORT WORTH,TX December 18, 2008
Send Subscribe/unsubscribe to KEPS at 
http://www.amsat.org/mailman/listinfo/keps
BID: ORB08353.O
TO ALL RADIO AMATEURS BT

Satellite: PO-63
Catalog number: 29712
Epoch time:      08353.69443743
Element set:      68
Inclination:      097.8538 deg
RA of node:       048.2092 deg
Eccentricity:    0.0014728
Arg of perigee:   138.9896 deg
Mean anomaly:     221.2410 deg
Mean motion:   14.80378717 rev/day
Decay rate:       5.77e-06 rev/day^2
Epoch rev:           10476
Checksum:              339

Satellite: VO-52
Catalog number: 28650
Epoch time:      08352.77845026
Element set:     106
Inclination:      097.7678 deg
RA of node:       054.1278 deg
Eccentricity:    0.0026054
Arg of perigee:   262.1260 deg
Mean anomaly:     097.6974 deg
Mean motion:   14.81533193 rev/day
Decay rate:        1.2e-07 rev/day^2
Epoch rev:           19578
Checksum:              323

Satellite: AO-40
Catalog number: 26609
Epoch time:      08353.40424836
Element set:     168
Inclination:      008.3137 deg
RA of node:       042.8842 deg
Eccentricity:    0.7939827
Arg of perigee:   156.3605 deg
Mean anomaly:     283.1390 deg
Mean motion:   01.25584091 rev/day
Decay rate:      -1.12e-06 rev/day^2
Epoch rev:            3735
Checksum:              307

Satellite: SO-33
Catalog number: 25509
Epoch time:      08352.39297172
Element set:     347
Inclination:      031.4341 deg
RA of node:       000.4495 deg
Eccentricity:    0.0354862
Arg of perigee:   189.0754 deg
Mean anomaly:     170.3273 deg
Mean motion:   14.28235462 rev/day
Decay rate:       2.46e-06 rev/day^2
Epoch rev:           52982
Checksum:              307

Satellite: FO-29
Catalog number: 24278
Epoch time:      08352.82059279
Element set:     928
Inclination:      098.5773 deg
RA of node:       244.9753 deg
Eccentricity:    0.0351423
Arg of perigee:   100.1832 deg
Mean anomaly:     263.9135 deg
Mean motion:   13.52940662 rev/day
Decay rate:        9.7e-07 rev/day^2
Epoch rev:           60922
Checksum:              332

Satellite: RS-15
Catalog number: 23439
Epoch time:      08350.56563056
Element set:     166
Inclination:      064.8150 deg
RA of node:       201.7472 deg
Eccentricity:    0.0145790
Arg of perigee:   087.5030 deg
Mean anomaly:     274.2577 deg
Mean motion:   11.27553148 rev/day
Decay rate:       -3.9e-07 rev/day^2
Epoch rev:           57541
Checksum:              305

Satellite: UO-11
Catalog number: 14781
Epoch time:      08352.31081423
Element set:     838
Inclination:      098.1328 deg
RA of node:       028.8659 deg
Eccentricity:    0.0008678
Arg of perigee:   197.7138 deg
Mean anomaly:     162.3741 deg
Mean motion:   14.79683315 rev/day
Decay rate:       -5.2e-07 rev/day^2
Epoch rev:           33093
Checksum:              324

Satellite: AO-10
Catalog number: 14129
Epoch time:      08348.79580094
Element set:     598
Inclination:      026.0336 deg
RA of node:       181.3286 deg
Eccentricity:    0.5959267
Arg of perigee:   181.2834 deg
Mean anomaly:     175.9706 deg
Mean motion:   02.05868889 rev/day
Decay rate:        8.5e-07 rev/day^2
Epoch rev:           19180
Checksum:              356

Satellite: AO-07
Catalog number: 07530
Epoch time:      08353.56666007
Element set:     355
Inclination:      101.4466 deg
RA of node:       018.7533 deg
Eccentricity:    0.0011792
Arg of perigee:   261.7665 deg
Mean anomaly:     098.2071 deg
Mean motion:   12.53574899 rev/day
Decay rate:       -2.7e-07 rev/day^2
Epoch rev:           56008
Checksum:              312

/EX
SB KEPS @ AMSAT  $ORB08353.D
Orbital Elements  08353.MICROS

HR AMSAT ORBITAL ELEMENTS FOR THE MICROSATS
FROM WA5QGD FORT WORTH,TX December 18, 2008
Send Subscribe/unsubscribe to KEPS at 
http://www.amsat.org/mailman/listinfo/keps
BID: ORB08353.D
TO ALL RADIO AMATEURS BT

Satellite: CO-65
Catalog number: 32785
Epoch time:      08352.84193047
Element set:     239
Inclination:      097.9719 deg
RA of node:       052.0785 deg
Eccentricity:    0.0013832
Arg of perigee:   260.2860 deg
Mean anomaly:     099.6769 deg
Mean motion:   14.81427416 rev/day
Decay rate:       -1.5e-07 rev/day^2
Epoch rev:            3459
Checksum:              337

Satellite: CP4
Catalog number: 31132
Epoch time:      08352.13779777
Element set:     485
Inclination:      098.0212 deg
RA of node:       050.6914 deg
Eccentricity:    0.0086835
Arg of perigee:   119.7700 deg
Mean anomaly:     241.2176 deg
Mean motion:   14.55168336 rev/day
Decay rate:       2.22e-06 rev/day^2
Epoch rev:            8855
Checksum:              305

Satellite: CP3
Catalog number: 31128
Epoch time:      08352.09107728
Element set:     508
Inclination:      098.0164 deg
RA of node:       047.5713 deg
Eccentricity:    0.0103752
Arg of perigee:   128.7635 deg
Mean anomaly:     232.2883 deg
Mean motion:   14.52001381 rev/day
Decay rate:       -4.6e-07 rev/day^2
Epoch rev:            8847
Checksum:              289

Satellite: CO-56
Catalog number: 28941
Epoch time:      08353.43013812
Element set:     647
Inclination:      098.1224 deg
RA of node:       130.9424 deg
Eccentricity:    0.0132639
Arg of perigee:   086.9336 deg
Mean anomaly:     274.7191 deg
Mean motion:   15.67798852 rev/day
Decay rate:     3.4176e-04 rev/day^2
Epoch rev:           15879
Checksum:              349

